[Date Prev][Date Next][Thread Prev][Thread Next] - [Date Index][Thread Index][Author Index]
2 Line ISS Keps 7-23
- Subject: [sarex] 2 Line ISS Keps 7-23
- From: "Dave Larsen PhD" <doc@xxxxxxxxxxx>
- Date: Tue, 23 Jul 2002 05:55:48 -0700
ISS
1 25544U 98067A 02204.51004832 .00014824 00000-0 19052-3 0 6896
2 25544 51.6379 230.6009 0008728 30.4941 130.0428 15.59298246209694
----
Via the sarex mailing list at AMSAT.ORG courtesy of AMSAT-NA.
To unsubscribe, send "unsubscribe sarex" to Majordomo@amsat.org
AMSAT Home